Location: Cosy Dell
(34.2789°N, 117.4537°W)
Time: 21:15:20
(UTC+00:00)

Cosmos 2346 Rocket - Pass Details

Date: 14 July 2020
Orbit: 936 x 981 km, 82.9° (Epoch: 13 August)

Event Time Altitude Azimuth Distance (km) Brightness Sun altitude
Rises 09:30:53 0° 356° (N) 3,644 8.4 -29.7°
Reaches altitude 10° 09:33:25 10° 358° (N) 2,688 7.5 -29.5°
Maximum altitude 09:39:32 72° 83° (E) 993 4.5 -28.9°
Enters shadow 09:40:11 66° 126° (SE) 1,026 4.4 -28.9°
